Location: Hains Lake
(37.8540°N, 99.8578°W)
Time: 05:05:14
(UTC+00:00)

Transit 2A - Pass Details

Date: 26 April 2021
Orbit: 602 x 957 km, 66.7° (Epoch: 13 May)

Event Time Altitude Azimuth Distance (km) Brightness Sun altitude
Rises 19:50:51 0° 349° (NNW) 2,883 8.8 60.9°
Reaches altitude 10° 19:53:55 10° 12° (NNE) 2,007 8.0 60.5°
Maximum altitude 19:56:40 16° 50° (NE) 1,694 7.7 60.2°
Drops below altitude 10° 19:59:30 10° 87° (E) 2,093 8.2 59.8°
Sets 20:02:47 0° 109° (ESE) 3,073 9.0 59.3°
